Theta_e
313 313 313 313 313 313 313 312 312 312 312 312 312 311 308 309 308 296 293 302 307 318 319 305 298 297 299 304 302 304 293 289 287 289 287 286 285 287 287 286 286 288 286 288 292
312 312 313 313 313 312 312 312 312 312 312 312 312 307 306 306 294 289 302 311 313 318 299 296 297 300 297 298 296 296 289 285 285 284 283 285 283 283 283 284 283 283 286 290 291
311 311 312 312 312 312 312 312 312 311 311 311 311 307 303 302 287 287 306 311 312 310 297 295 294 298 292 292 291 287 286 285 284 286 285 284 283 285 283 281 282 282 284 288 289
310 311 311 312 312 312 312 311 311 311 311 311 311 311 306 294 280 290 307 309 309 300 295 293 293 289 286 286 288 284 285 287 287 286 285 283 285 283 283 284 287 286 286 288 288
310 310 310 311 311 311 311 311 310 310 311 311 311 314 296 285 285 294 305 301 295 294 291 290 288 287 284 286 286 283 283 284 285 286 284 286 283 283 284 285 287 287 289 287 287
310 310 310 310 310 310 311 310 311 310 310 310 312 310 289 282 293 294 294 295 293 291 290 290 287 288 285 284 283 283 284 283 284 284 285 284 282 284 285 286 286 287 286 288 288
310 310 310 310 310 310 310 310 310 310 310 310 312 293 286 285 291 292 293 292 293 291 289 290 289 286 285 283 286 285 282 283 282 284 283 283 281 282 284 285 286 286 284 287 289
309 310 310 310 310 309 309 310 311 309 310 310 313 288 283 291 290 293 293 292 293 293 291 292 292 288 284 284 283 280 280 277 282 284 284 281 279 285 286 284 284 285 283 285 287
309 310 310 309 309 309 309 311 311 309 310 310 292 286 281 297 290 292 290 290 292 292 292 295 291 285 284 280 278 278 275 276 279 283 282 281 279 284 284 284 283 283 283 284 286
308 309 309 309 309 310 309 311 308 299 296 295 293 286 287 286 290 292 291 292 290 290 290 288 284 280 279 278 276 275 274 277 276 280 280 279 280 283 285 284 283 283 283 283 285
308 309 309 309 309 307 299 291 289 288 288 283 284 285 287 290 293 291 292 291 290 287 281 283 279 276 276 278 278 277 275 274 278 280 279 277 279 282 283 282 282 281 282 283 285
308 309 309 309 309 304 293 287 288 289 281 288 288 288 289 290 285 288 292 287 285 280 282 280 276 279 282 281 279 277 276 275 278 280 279 277 278 282 282 282 282 283 282 283 284
307 308 308 308 306 295 291 290 295 293 282 284 287 286 286 289 283 285 289 286 282 279 278 278 279 283 281 279 278 276 276 274 275 278 278 276 276 279 281 281 282 283 283 284 285
307 307 307 308 295 291 288 295 295 293 275 281 284 286 288 288 283 289 289 286 283 279 278 277 280 281 279 278 278 276 278 278 277 275 273 276 273 277 279 281 282 283 283 284 284
307 307 306 302 291 288 292 295 293 290 270 281 283 288 288 284 283 285 288 286 280 280 281 277 277 278 279 279 279 278 279 278 277 274 272 272 271 277 278 280 281 282 283 283 284
307 306 304 296 292 292 294 293 290 278 269 275 281 281 282 283 283 286 286 287 285 281 279 278 281 280 279 281 280 281 278 278 275 273 269 273 272 276 278 280 280 281 283 284 284
306 305 299 296 288 294 292 288 278 273 277 274 274 280 279 279 281 281 281 278 278 275 275 278 277 278 280 277 279 279 276 271 270 269 271 273 272 278 281 282 282 283 283 283 283
306 304 299 297 294 291 288 281 271 272 271 279 278 279 277 278 278 278 277 275 278 278 272 273 273 277 279 277 275 275 275 272 267 269 272 275 272 279 282 283 283 283 282 283 284
304 295 294 295 295 291 283 271 276 274 280 278 278 274 270 277 276 276 275 275 278 278 274 271 275 277 279 278 277 276 272 275 270 267 268 273 276 281 283 282 282 283 283 283 284
294 293 293 295 293 285 278 278 274 284 281 279 277 276 268 269 273 274 273 277 279 280 276 276 272 277 278 278 278 276 279 272 270 265 264 272 274 278 281 280 282 281 282 283 283
294 286 292 294 289 280 274 272 276 283 281 280 278 274 276 274 272 269 274 276 280 278 278 270 274 274 275 272 274 274 272 272 271 272 268 267 273 280 281 282 282 282 282 283 283
293 286 291 291 278 274 270 275 283 279 280 280 279 280 279 277 272 272 273 276 281 279 276 277 271 271 272 275 277 276 275 275 270 268 270 272 272 282 282 282 281 282 283 282 283
289 288 293 291 280 277 273 278 279 278 279 278 278 279 279 278 273 277 277 280 281 279 277 278 271 266 271 273 275 270 276 277 275 273 267 267 275 281 280 280 281 281 282 282 282
288 284 285 287 286 284 280 277 275 279 280 280 278 279 277 278 278 272 278 279 281 281 286 282 273 273 273 273 271 267 268 275 272 267 271 273 279 283 284 282 283 283 282 282 281
290 286 286 279 280 284 283 281 278 276 278 280 278 278 276 271 275 276 278 277 279 284 281 276 270 269 272 275 271 272 270 272 273 276 273 278 277 281 283 281 283 281 281 281 281
286 285 284 285 285 284 284 284 282 280 277 277 276 279 278 275 278 277 278 276 277 279 278 276 267 269 268 274 274 272 273 275 276 276 277 277 277 283 284 285 283 282 281 281 282
292 290 289 287 283 284 285 288 286 284 283 282 281 280 277 279 283 280 281 281 281 279 277 274 269 266 265 272 272 269 273 274 275 276 277 274 279 285 282 282 282 282 281 282 282
Wind_Speed
16 15 15 14 13 13 12 11 10 12 12 12 13 10 6 6 6 7 9 8 11 21 14 4 1 3 2 2 5 1 5 2 3 1 4 3 2 6 4 4 4 3 3 3 8
16 16 15 13 13 14 12 10 10 11 14 11 11 6 3 3 1 5 9 19 20 19 4 5 2 1 4 4 5 6 5 3 2 1 1 4 1 4 4 5 3 1 3 4 2
16 16 16 15 14 15 14 11 10 10 13 11 10 5 0 2 3 5 18 24 23 16 3 2 4 3 7 5 6 4 4 5 1 0 2 2 3 4 3 1 4 4 4 1 3
16 16 16 16 16 16 16 13 12 10 11 10 9 6 0 2 3 4 21 23 22 12 2 4 6 6 5 5 4 7 5 5 1 1 1 2 4 3 2 5 4 5 3 1 5
16 16 16 17 17 17 16 16 13 12 12 11 9 8 3 7 1 7 19 16 8 6 7 5 6 4 5 5 2 5 3 3 3 4 2 2 3 4 5 6 6 3 3 1 2
16 17 18 18 18 18 18 16 14 12 13 12 11 4 2 6 4 7 10 9 8 7 7 8 3 3 7 4 4 3 5 5 2 2 1 2 3 2 5 7 4 2 5 6 5
18 18 19 19 19 19 18 16 14 12 11 11 10 4 9 5 2 8 8 3 6 3 4 3 2 4 5 4 2 5 5 1 2 4 2 1 3 9 5 6 6 5 4 7 7
16 17 18 19 20 19 20 17 13 11 11 8 8 5 4 2 2 6 8 4 6 3 1 2 5 7 5 3 5 3 5 2 1 7 1 2 9 4 8 7 8 7 6 6 7
15 17 19 20 20 20 20 15 10 10 6 6 5 5 1 4 5 6 3 5 8 3 1 2 4 5 6 4 5 7 3 1 4 5 4 5 9 6 3 6 8 7 7 6 7
15 17 18 19 21 19 18 5 3 4 7 2 4 5 6 5 5 7 5 3 3 4 3 8 7 5 6 5 4 3 1 3 4 5 3 6 20 14 10 9 10 10 9 8 7
15 17 18 20 20 20 8 5 8 5 12 4 2 1 3 8 3 5 5 7 2 9 4 5 9 4 0 4 3 4 2 2 4 3 6 4 14 22 11 10 11 9 9 9 9
15 17 19 18 14 15 5 8 3 2 2 3 1 2 2 2 4 6 8 4 7 4 5 8 4 3 2 2 2 2 1 4 6 2 4 7 20 14 7 8 10 11 9 10 6
14 16 19 19 5 7 7 5 1 1 4 4 2 3 4 5 2 8 7 2 6 6 5 6 3 1 1 4 3 3 1 2 3 10 2 8 9 6 2 2 3 6 7 7 10
15 17 21 19 6 1 4 3 2 1 8 6 5 5 4 2 4 2 4 2 6 5 4 5 1 1 1 2 1 1 2 2 2 6 4 5 7 7 4 6 4 7 9 9 9
13 16 19 14 2 4 1 3 2 3 5 2 5 1 4 4 4 6 2 4 4 4 3 1 2 1 1 2 1 2 1 1 2 2 3 1 2 11 4 6 7 10 10 9 8
11 13 13 5 4 1 3 3 3 11 6 4 3 3 2 5 5 5 4 6 3 4 6 3 2 3 2 2 1 2 2 3 4 2 3 2 3 9 5 6 3 5 9 9 7
7 10 5 1 1 4 3 3 9 6 3 6 1 4 2 3 3 4 3 3 1 6 3 5 2 1 1 1 3 3 3 4 7 5 6 2 1 15 5 7 7 6 7 7 6
4 6 4 1 2 2 2 8 5 3 7 2 4 3 2 3 0 1 3 2 2 5 4 5 6 0 3 2 1 2 2 6 5 3 5 4 9 10 7 7 7 7 5 6 7
3 1 0 2 3 2 7 5 10 8 6 9 2 4 5 2 3 2 2 3 3 5 8 5 3 0 3 2 1 2 2 2 6 2 3 5 10 12 6 10 6 7 7 8 7
1 3 2 1 3 5 8 7 5 5 5 2 7 4 6 4 3 4 2 5 5 1 2 3 3 2 2 0 2 1 3 4 4 1 6 6 7 11 6 4 8 7 9 8 5
2 3 1 3 4 7 5 9 6 5 3 7 7 4 6 7 6 5 6 4 6 6 5 4 5 2 4 4 6 1 0 4 3 4 5 4 9 9 8 8 10 10 9 8 8
4 2 0 1 5 2 3 7 4 4 1 3 1 5 9 8 6 3 8 6 6 8 8 6 6 4 7 1 1 2 3 5 6 6 4 1 15 5 8 7 6 8 8 6 7
4 3 1 0 5 4 4 4 3 5 6 5 6 6 3 7 1 6 6 0 7 7 7 8 1 2 7 4 4 3 5 4 4 3 7 5 12 1 2 4 6 9 8 9 8
4 4 0 1 1 7 6 6 5 5 5 5 4 3 3 5 3 4 4 2 5 5 5 5 2 8 9 7 6 3 5 6 7 4 5 15 29 25 18 11 11 10 9 9 9
4 5 6 8 6 6 7 10 7 7 3 6 4 9 10 6 4 7 4 3 2 6 3 5 6 4 4 4 4 6 6 10 14 16 11 31 18 29 13 10 13 8 7 9 9
7 6 2 4 6 19 13 13 14 6 13 8 5 16 11 11 14 14 10 6 8 4 7 1 2 3 5 1 7 11 11 15 20 19 23 31 33 37 28 23 19 14 9 10 9
3 1 4 9 7 13 13 19 20 11 8 8 19 7 14 22 4 1 2 6 11 12 10 7 7 4 7 4 5 12 19 25 13 7 19 21 34 23 19 14 13 10 9 11 11
Wind_Direction
34 29 28 22 17 11 7 0 358 355 347 339 330 318 319 340 348 17 39 314 318 315 317 261 199 243 234 34 34 53 65 71 17 82 173 321 348 338 303 72 50 53 121 249 302
28 21 18 16 7 0 355 350 344 343 336 334 331 330 313 338 114 48 338 339 332 338 8 13 35 183 52 28 20 61 82 142 233 175 243 321 23 313 27 11 15 51 305 291 359
21 16 12 7 359 355 351 342 333 334 339 341 342 350 218 217 87 317 335 337 337 338 226 273 289 56 60 23 2 26 117 155 10 8 9 328 330 302 133 319 226 267 286 355 10
16 10 6 360 355 352 347 340 332 327 336 337 338 335 208 59 87 298 331 330 335 335 59 23 30 54 67 67 342 92 26 120 146 6 168 308 292 321 281 213 220 233 234 44 4
11 4 2 355 351 346 341 339 330 326 328 336 332 308 174 51 76 291 327 328 344 4 41 51 54 110 100 90 60 87 153 87 121 56 106 296 288 264 262 219 232 281 211 250 307
8 0 358 351 348 342 339 337 328 327 326 333 340 121 99 71 293 302 335 339 8 21 12 32 88 109 94 84 93 131 125 134 177 22 143 348 273 25 245 201 222 249 247 246 264
2 359 353 349 345 341 333 333 325 317 323 327 348 73 58 179 291 323 340 319 348 10 47 25 316 65 135 89 135 125 86 10 324 320 244 305 254 228 227 190 209 242 285 271 270
0 354 349 345 340 336 332 325 317 305 315 311 335 68 95 274 301 341 340 327 341 342 37 351 68 97 55 130 64 80 49 67 258 352 333 16 273 259 202 178 225 241 263 275 270
355 351 346 342 338 334 328 317 313 308 300 302 52 78 99 325 21 317 3 328 305 316 334 329 70 80 27 68 31 12 173 302 322 38 320 40 271 281 220 221 252 257 265 269 284
350 349 344 341 339 331 326 318 315 26 357 42 63 51 10 314 309 326 316 352 348 324 31 42 53 70 31 52 215 191 83 310 267 347 347 262 263 263 261 259 258 259 245 252 256
346 344 342 343 340 342 4 16 17 350 42 80 314 311 319 298 261 348 354 333 22 49 53 14 65 83 82 8 123 114 112 293 271 54 337 227 286 279 243 232 238 240 225 234 243
344 342 339 337 340 358 69 74 138 210 31 22 325 26 304 336 345 341 357 63 49 64 336 28 89 209 272 8 116 87 70 313 284 337 360 332 293 290 264 240 218 202 217 229 244
342 340 337 333 338 42 73 88 209 149 88 1 10 9 314 11 46 320 16 14 84 47 11 113 152 212 101 44 84 49 64 64 262 321 239 307 291 332 341 264 201 210 206 219 224
341 341 341 333 48 130 55 300 333 143 74 300 343 2 341 326 29 314 13 67 31 142 85 84 225 138 78 90 97 156 139 119 307 21 290 19 283 303 313 305 230 225 217 228 237
339 343 346 29 156 56 253 317 313 56 33 277 319 261 304 51 318 12 3 25 74 79 98 182 144 157 220 181 138 157 133 162 131 91 11 323 50 271 338 279 244 228 231 240 244
335 344 352 12 41 23 324 348 49 43 263 335 299 345 44 27 8 322 27 45 130 92 47 83 308 24 5 314 262 23 95 67 54 73 22 267 131 278 213 208 260 231 231 233 229
327 344 9 28 352 331 342 52 38 121 321 286 258 19 75 4 19 35 26 31 102 61 348 357 343 309 70 337 355 56 62 332 355 8 226 352 274 246 257 233 210 222 233 215 226
309 344 348 99 320 15 74 48 95 237 218 209 165 104 114 343 319 5 93 2 172 108 103 142 314 110 4 87 235 50 146 151 232 262 283 329 241 254 214 260 239 205 205 208 231
349 357 318 304 341 67 71 58 207 204 161 157 91 84 306 335 159 23 231 219 211 176 157 132 260 41 54 356 97 152 84 185 101 64 30 239 286 292 260 247 206 221 196 223 250
78 355 264 343 22 54 76 231 216 187 138 171 177 159 193 240 139 152 156 215 177 170 94 234 48 357 350 115 35 282 160 70 6 319 286 279 273 246 282 255 232 226 224 234 259
98 29 255 15 78 47 169 224 235 244 166 164 211 157 212 187 172 216 214 278 174 154 106 131 108 281 30 201 183 138 200 53 114 154 196 289 252 216 230 228 230 234 233 234 257
146 210 200 50 69 115 180 204 189 191 53 239 222 200 190 167 175 239 218 227 173 157 163 187 140 193 220 280 324 294 211 162 128 245 242 213 268 262 233 251 230 240 237 244 252
195 163 33 308 174 204 280 254 246 165 200 180 215 207 178 184 270 195 200 153 158 164 167 187 227 41 335 349 0 204 197 187 104 101 207 147 262 322 275 241 263 257 262 271 267
140 175 215 174 322 156 156 227 221 210 199 169 166 87 145 206 207 213 237 201 185 183 166 130 139 173 190 196 131 194 227 191 146 152 191 225 273 270 258 272 279 261 252 266 271
186 225 179 180 214 201 182 162 175 185 238 186 190 199 173 180 168 216 163 133 52 197 122 135 207 168 258 206 178 205 184 195 204 209 205 267 243 265 270 265 277 246 265 265 271
171 153 261 176 150 186 186 208 200 197 153 227 206 209 181 171 189 199 148 184 189 170 167 186 227 117 290 241 218 255 214 232 227 228 246 256 274 261 279 280 277 277 267 269 274
123 103 160 177 161 172 197 206 214 183 219 191 207 169 197 219 144 228 142 158 157 155 171 155 140 111 264 354 334 291 222 208 220 188 223 241 242 274 269 261 265 255 250 256 245